Location: Splawn
(30.9202°N, 96.9858°W)
Time: 11:44:01
(UTC+00:00)

Altair - All Passes

Search period start: 28 February 2020 00:00
Search period end: 09 March 2020 00:00
Orbit: 1502 x 1682 km, 47.2° (Epoch: 27 February)

Date Brightness Start Highest point End Pass type
(mag) Time Alt. Az. Time Alt. Az. Time Alt. Az.
28 Feb - 03:31:43 10° SSW 03:39:54 38° SE 03:48:14 10° ENE visible
28 Feb - 05:35:01 10° WSW 05:44:10 66° NW 05:53:40 10° NE night (unlit)
28 Feb - 07:42:19 10° WNW 07:50:30 32° NNW 07:58:58 10° NE visible
28 Feb - 09:49:25 10° NW 09:57:57 34° NNE 10:06:45 10° ENE visible
28 Feb - 11:54:20 10° NW 12:04:12 73° NE 12:14:19 10° ESE visible
28 Feb - 13:59:53 10° WNW 14:08:36 36° SW 14:17:27 10° S daylight
29 Feb - 03:06:55 10° S 03:14:49 34° SE 03:22:52 10° ENE visible
29 Feb - 05:09:47 10° WSW 05:18:58 71° NW 05:28:29 10° NE night (unlit)
29 Feb - 07:16:56 10° WNW 07:25:09 33° NNW 07:33:39 10° NE visible
29 Feb - 09:24:10 10° NW 09:32:35 33° NNE 09:41:15 10° ENE visible
29 Feb - 11:29:10 10° NW 11:38:58 68° NE 11:49:01 10° ESE visible
29 Feb - 13:34:31 10° WNW 13:43:28 39° SW 13:52:35 10° SSE daylight
01 Mar - 02:42:09 10° S 02:49:46 30° SE 02:57:27 10° ENE visible
01 Mar - 04:44:35 10° WSW 04:53:47 76° NW 05:03:18 10° NE visible
01 Mar - 06:51:32 10° WNW 06:59:48 34° NNW 07:08:21 10° NE visible
01 Mar - 08:58:55 10° NW 09:07:13 32° N 09:15:46 10° ENE visible
01 Mar - 11:04:01 10° NW 11:13:43 63° NE 11:23:41 10° ESE visible
01 Mar - 13:09:11 10° WNW 13:18:19 43° SW 13:27:41 10° SSE daylight
02 Mar - 02:17:27 10° S 02:24:42 27° SE 02:32:00 10° ENE visible
02 Mar - 04:19:24 10° SW 04:28:36 82° NW 04:38:06 10° NE visible
02 Mar - 06:26:08 10° W 06:34:27 35° NNW 06:43:04 10° NE visible
02 Mar - 08:33:38 10° NW 08:41:50 31° N 08:50:17 10° ENE visible
02 Mar - 10:38:51 10° NW 10:48:27 59° NNE 10:58:20 10° ESE visible
02 Mar - 12:43:53 10° WNW 12:53:11 48° SW 13:02:43 10° SSE daylight
03 Mar - 01:52:50 10° S 01:59:38 24° SE 02:06:30 10° ENE visible
03 Mar - 03:54:14 10° SW 04:03:26 88° NW 04:12:54 10° NE visible
03 Mar - 06:00:45 10° W 06:09:08 37° NNW 06:17:48 10° NE night (unlit)
03 Mar - 08:08:22 10° NW 08:16:28 30° N 08:24:48 10° ENE visible
03 Mar - 10:13:42 10° NW 10:23:11 55° NNE 10:32:59 10° ESE visible
03 Mar - 12:18:36 10° WNW 12:28:03 52° SW 12:37:43 10° SSE visible
04 Mar - 01:28:16 10° S 01:34:35 21° SE 01:40:56 10° E visible
04 Mar - 03:29:06 10° SW 03:38:17 86° SE 03:47:42 10° NE visible
04 Mar - 05:35:22 10° W 05:43:49 38° NNW 05:52:34 10° NE visible
04 Mar - 07:43:04 10° NW 07:51:05 30° N 07:59:20 10° ENE visible
04 Mar - 09:48:33 10° NW 09:57:55 52° NNE 10:07:36 10° ESE visible
04 Mar - 11:53:22 10° WNW 12:02:54 57° SW 12:12:42 10° SSE visible
04 Mar - 14:03:50 10° WSW 14:06:28 11° WSW 14:09:07 10° SW daylight
05 Mar - 01:03:50 10° SSE 01:09:32 18° SE 01:15:16 10° E visible
05 Mar - 03:03:59 10° SW 03:13:08 79° SE 03:22:30 10° NE visible
05 Mar - 05:10:00 10° W 05:18:31 40° NNW 05:27:19 10° NE visible
05 Mar - 07:17:46 10° NW 07:25:42 29° N 07:33:53 10° ENE visible
05 Mar - 09:23:23 10° NW 09:32:38 49° NNE 09:42:11 10° E visible
05 Mar - 11:28:08 10° WNW 11:37:44 63° SW 11:47:38 10° SSE visible
05 Mar - 13:37:11 10° W 13:41:23 13° WSW 13:45:37 10° SSW daylight
06 Mar - 00:39:31 10° SSE 00:44:29 16° ESE 00:49:28 10° E visible
06 Mar - 02:38:54 10° SW 02:48:01 73° SE 02:57:17 10° NE visible
06 Mar - 04:44:37 10° W 04:53:14 42° NNW 05:02:06 10° NE visible
06 Mar - 06:52:26 10° NW 07:00:19 29° N 07:08:27 10° ENE visible
06 Mar - 08:58:14 10° NW 09:07:20 46° NNE 09:16:46 10° E visible
06 Mar - 11:02:55 10° NW 11:12:34 68° SW 11:22:32 10° SE visible
06 Mar - 13:11:05 10° W 13:16:17 16° WSW 13:21:34 10° SSW daylight
07 Mar - 00:15:26 10° SSE 00:19:27 14° ESE 00:23:27 10° E daylight
07 Mar - 02:13:52 10° SW 02:22:54 67° SE 02:32:04 10° NE visible
07 Mar - 04:19:16 10° W 04:27:57 45° NNW 04:36:53 10° NE visible
07 Mar - 06:27:06 10° WNW 06:34:56 29° N 06:43:00 10° ENE night (unlit)
07 Mar - 08:33:03 10° NW 08:42:02 43° NNE 08:51:19 10° E visible
07 Mar - 10:37:43 10° NW 10:47:23 74° SW 10:57:24 10° SE visible
07 Mar - 12:45:13 10° W 12:51:12 18° SW 12:57:18 10° SSW daylight
07 Mar - 23:51:50 10° SE 23:54:24 11° ESE 23:56:57 10° ESE daylight
08 Mar - 01:48:50 10° SSW 01:57:47 61° SE 02:06:50 10° ENE visible
08 Mar - 03:53:56 10° W 04:02:42 47° NNW 04:11:41 10° NE visible
08 Mar - 06:01:45 10° WNW 06:09:34 29° N 06:17:36 10° NE visible
08 Mar - 08:07:53 10° NW 08:16:44 41° NNE 08:25:52 10° E visible
08 Mar - 10:12:32 10° NW 10:22:13 80° SW 10:32:15 10° SE visible
08 Mar - 12:19:29 10° W 12:26:06 20° SW 12:32:51 10° SSW visible
